{"data":{"norad_id":46565,"epoch":"2026-05-25T03:19:39.772128Z","epoch_age_seconds":66999,"freshness":"FRESH","line1":"1 46565U 20070AK  26145.13865477  .00133912  00000+0  76930-3 0  9990","line2":"2 46565  53.0351 100.8315 0010576  67.4851 292.7287 15.77796627312328","mean_motion":15.77796627,"eccentricity":0.0010576,"inclination_deg":53.0351,"raan_deg":100.8315,"arg_perigee_deg":67.4851,"mean_anomaly_deg":292.7287,"bstar":0.0007693,"rev_number":31232,"period_min":91.266515301024,"perigee_km":329.58321593234,"apogee_km":343.78640702798,"semimajor_km":6714.8218114802,"source":"CELESTRAK","updated_at":"2026-05-25T13:38:16.512758Z"}}